Location: Albany
(35.0000°S, 118.0000°E)
Time: 15:11:11
(UTC-05:00)

Atlas Centaur 2 - Visible Passes

Search period start: 01 March 2017 00:00
Search period end: 11 March 2017 00:00
Orbit: 459 x 1314 km, 30.4° (Epoch: 01 March)

Date Brightness Start Highest point End Pass type
(mag) Time Alt. Az. Time Alt. Az. Time Alt. Az.
05 Mar 3.2 16:29:39 10° NNW 16:32:21 19° NNE 16:35:16 10° ENE visible
06 Mar 2.9 16:26:15 10° NW 16:29:10 23° NNE 16:32:20 10° ENE visible
07 Mar 2.6 16:22:56 10° NW 16:26:01 27° NNE 16:29:20 10° ENE visible
08 Mar 2.3 16:19:44 10° NW 16:22:54 31° NNE 16:26:18 10° ENE visible
09 Mar 2.1 16:16:55 13° NW 16:19:48 35° N 16:23:14 10° ENE visible
10 Mar 1.9 16:14:04 15° WNW 16:16:43 38° N 16:20:09 10° ENE visible
